Weather in Kirkagac

Turkey     39°06′20″N   27°40′15″E
temp.,
°C
wind,
m/s
gust,
m/s
humid.,
%
clouds,
%
prec.,
mm/h
press.,
hPa
HPBL,
m
20 april, tue
tue2000:00+10ssw22832 0.1 101214
03:00+9s22871 0.1 101213
06:00+8s11880 0.0 101212
09:00+13ssw23709 0.1 1014362
12:00+17sw364742 0.3 10142074
15:00+18w564190 0.4 10132142
18:00+16wnw56452 0.0 10141185
21:00+10wnw11630 0.0 101611
21 april, wed
wed2100:00+9sw00710 0.0 101710
03:00+8ne00750 0.0 101710
06:00+7ne11790 0.0 101810
09:00+12se11590 0.0 1019289
12:00+17ssw114297 0.0 10181189
15:00+18ssw2339100 0.0 10182143
18:00+17nw234582 0.0 10171114
21:00+13nw22617 0.1 101916
22 april, thu
thu2200:00+10n22740 0.0 102012
03:00+9n11800 0.0 102110
06:00+8nne11820 0.0 102110
09:00+13ne01630 0.0 1022319
12:00+18sw11400 0.0 10221396
15:00+20ssw12303 0.0 10211997
18:00+20se013298 0.0 10191426
21:00+14nnw115313 0.0 102013
23 april, fri
fri2300:00+13n1155100 0.0 102012
03:00+13n1158100 0.0 101910
06:00+11ese006352 0.0 101910
09:00+15s1153100 0.0 1020219
12:00+20ssw23375 0.0 10191042
15:00+23sw352967 0.0 10181941
18:00+21wnw463791 0.0 10181079
21:00+15nnw225183 0.0 102013
24 april, sat
sat2400:00+13nne115825 0.0 101912
03:00+12nne2264100 0.0 101917
06:00+13n2266100 0.0 101941
09:00+12nne2384100 1.6 1020208
12:00+14ne2376100 0.5 1019427
15:00+16ene1272100 0.7 1018460
18:00+14nne3591100 1.4 1016194
21:00+13ne3596100 5.7 1016202